Find Starlink 31166

NORAD ID: 58789 Int'l Des: 2024-012 Owner: SPXS Country: US Constellation: starlink operational
LEOCIRCULAR

Current View

Loading 3D Globe...

About Starlink 31166

Starlink 31166 (NORAD 58789) is a starlink constellation satellite (v2 mini) launched Jan 15, 2024 by SPXS of US. It operates in LEO, CIRCULAR orbit with a mass of 730.00 kg.

About Starlink 31166

Description loading...

Upcoming Passes

Passes for default location (London). Set your location on the main map for personalized predictions.

Altitude History

Loading altitude history...

Two-Line Element Set

1 58789U 24012C 26166.74298956 -.00000116 00000-0 52889-5 0 9993
2 58789 42.9989 331.3487 0001159 272.6168 87.4551 15.27575450136233
Epoch: Jun 15, 2026 • Age: 13 hours

Current Status

Altitude 482.6 km
Velocity 7.63 km/s
Sub-Earth Point 3.42°N, 132.76°E
Launch Date Jan 15, 2024
Age 2.4 years
Type internet

Technical Details

Classification Payload
Mass 730.00 kg
Dry Mass 700.00 kg
Total Mass 730.00 kg
Length 0.30 m
Diameter 4.10 m
Span 29.00 m
Shape Box + pan
Manufacturer SPXS
Bus Type Starlink V2M
Phase Status In Orbit
Owner/State SPXS/US

Most Searched